EZY9171 LOWW-LGSK

Flight info

Callsign EZY9171
Flight time 1h 35m
Altitude 39000
Route ARSIN DCT NALOX DCT BABIT DCT RAXAD DCT MAKED UL617 IBIDI
Aircraft A20N/M-SDE2E3FGHIRWXY/LB1

Departure

Time 2026-05-01 07:49
Airport Vienna International Airport (LOWW)

Arrival

Time 2026-05-01 09:25
Airport Skiathos Island National Airport (LGSK)
Time Latitude Longitude Altitude Speed Heading
2026-05-01 07:23 48.11929 16.55635 609 ft 0 kts 25°
2026-05-01 07:41 48.11921 16.55629 609 ft 4 kts 26°
2026-05-01 07:41 48.11897 16.55610 617 ft 4 kts 33°
2026-05-01 07:41 48.11863 16.55554 620 ft 4 kts 100°
2026-05-01 07:42 48.11866 16.55540 621 ft 1 kts 116°
2026-05-01 07:42 48.11866 16.55539 620 ft 0 kts 116°
2026-05-01 07:44 48.11862 16.55551 620 ft 5 kts 116°
2026-05-01 07:45 48.11807 16.55582 616 ft 12 kts 189°
2026-05-01 07:45 48.11737 16.55654 617 ft 15 kts 117°
2026-05-01 07:45 48.11688 16.55803 611 ft 17 kts 116°
2026-05-01 07:45 48.11632 16.55975 616 ft 19 kts 116°
2026-05-01 07:46 48.11570 16.56167 614 ft 22 kts 115°
2026-05-01 07:46 48.11503 16.56378 609 ft 23 kts 116°
2026-05-01 07:46 48.11352 16.56842 620 ft 26 kts 115°
2026-05-01 07:47 48.11272 16.57090 611 ft 20 kts 116°
2026-05-01 07:47 48.11226 16.57216 621 ft 8 kts 127°
2026-05-01 07:47 48.11166 16.57226 609 ft 11 kts 201°
2026-05-01 07:47 48.11091 16.57171 614 ft 13 kts 206°
2026-05-01 07:48 48.11094 16.56981 617 ft 11 kts 295°
2026-05-01 07:48 48.11202 16.56649 614 ft 67 kts 296°
2026-05-01 07:48 48.11499 16.55742 613 ft 122 kts 296°
2026-05-01 07:49 48.11927 16.54425 616 ft 161 kts 296°
2026-05-01 07:49 48.12610 16.51179 1674 ft 166 kts 265°
2026-05-01 07:49 48.12163 16.49575 2216 ft 176 kts 232°
2026-05-01 07:50 48.11145 16.48469 2731 ft 189 kts 205°
2026-05-01 07:50 48.08407 16.46896 3725 ft 217 kts 196°
2026-05-01 07:50 48.06931 16.46497 4654 ft 212 kts 181°
2026-05-01 07:51 48.05483 16.46577 5613 ft 205 kts 169°
2026-05-01 07:51 48.04095 16.46937 6499 ft 202 kts 165°
2026-05-01 07:51 48.02702 16.47321 7249 ft 207 kts 164°
2026-05-01 07:52 47.99581 16.48141 8048 ft 253 kts 165°
2026-05-01 07:52 47.97758 16.48576 8479 ft 279 kts 174°
2026-05-01 07:52 47.95786 16.48133 9008 ft 302 kts 199°
2026-05-01 07:53 47.91929 16.45278 10693 ft 317 kts 206°
2026-05-01 07:53 47.89891 16.43726 11051 ft 340 kts 201°
2026-05-01 07:53 47.87545 16.42871 11354 ft 355 kts 179°
2026-05-01 07:53 47.85101 16.43323 12002 ft 355 kts 161°
2026-05-01 07:54 47.80268 16.45245 13588 ft 364 kts 160°
2026-05-01 07:55 47.72950 16.48643 15802 ft 363 kts 141°
2026-05-01 07:55 47.69248 16.53557 17193 ft 362 kts 129°
2026-05-01 07:56 47.63735 16.61440 19203 ft 372 kts 129°
2026-05-01 07:56 47.59963 16.66800 20393 ft 379 kts 129°
2026-05-01 07:57 47.58051 16.69509 20990 ft 382 kts 129°
2026-05-01 07:57 47.54180 16.74983 22201 ft 388 kts 128°
2026-05-01 07:58 47.50241 16.80539 23380 ft 394 kts 128°
2026-05-01 07:58 47.46268 16.86130 24462 ft 399 kts 128°
2026-05-01 07:59 47.42218 16.91818 25420 ft 404 kts 127°
2026-05-01 07:59 47.38116 16.97569 26351 ft 409 kts 127°
2026-05-01 08:00 47.29752 17.09253 28082 ft 419 kts 127°
2026-05-01 08:01 47.23348 17.18166 29250 ft 426 kts 127°
2026-05-01 08:01 47.21184 17.21169 29620 ft 428 kts 127°
2026-05-01 08:01 47.19009 17.24184 29985 ft 431 kts 127°
2026-05-01 08:02 47.14624 17.30254 30668 ft 435 kts 127°
2026-05-01 08:02 47.12417 17.33303 30965 ft 437 kts 127°
2026-05-01 08:03 47.07961 17.39449 31573 ft 441 kts 127°
2026-05-01 08:03 47.05721 17.42530 31957 ft 441 kts 127°
2026-05-01 08:03 47.01275 17.48635 32726 ft 440 kts 127°
2026-05-01 08:04 46.96800 17.54770 33453 ft 440 kts 127°
2026-05-01 08:04 46.92336 17.60878 34136 ft 440 kts 127°
2026-05-01 08:05 46.87860 17.66993 34646 ft 441 kts 128°
2026-05-01 08:05 46.85609 17.70063 34868 ft 443 kts 128°
2026-05-01 08:05 46.83355 17.73133 35075 ft 444 kts 128°
2026-05-01 08:06 46.78822 17.79293 35489 ft 446 kts 129°
2026-05-01 08:06 46.74291 17.85435 35896 ft 448 kts 129°
2026-05-01 08:07 46.69710 17.91628 36294 ft 450 kts 130°
2026-05-01 08:07 46.65110 17.97832 36674 ft 452 kts 130°
2026-05-01 08:08 46.62799 18.00943 36864 ft 452 kts 131°
2026-05-01 08:08 46.58167 18.07165 37222 ft 454 kts 131°
2026-05-01 08:09 46.53518 18.13397 37548 ft 455 kts 131°
2026-05-01 08:09 46.51188 18.16513 37717 ft 456 kts 131°
2026-05-01 08:09 46.48848 18.19638 37878 ft 457 kts 132°
2026-05-01 08:10 46.44187 18.25853 38170 ft 458 kts 132°
2026-05-01 08:10 46.39482 18.32110 38464 ft 460 kts 133°
2026-05-01 08:11 46.34760 18.38374 38756 ft 461 kts 133°
2026-05-01 08:11 46.30027 18.44639 39010 ft 462 kts 133°
2026-05-01 08:12 46.25270 18.50918 39234 ft 462 kts 133°
2026-05-01 08:12 46.22897 18.54044 39346 ft 462 kts 133°
2026-05-01 08:13 46.15759 18.63426 39374 ft 462 kts 134°
2026-05-01 08:13 46.08653 18.72734 39372 ft 463 kts 134°
2026-05-01 08:14 46.03877 18.78970 39372 ft 463 kts 134°
2026-05-01 08:14 45.99098 18.85197 39372 ft 463 kts 134°
2026-05-01 08:15 45.91778 18.94276 39373 ft 465 kts 140°
2026-05-01 08:16 45.86421 18.99545 39370 ft 466 kts 142°
2026-05-01 08:16 45.81101 19.04751 39367 ft 466 kts 142°
2026-05-01 08:17 45.75749 19.10001 39372 ft 466 kts 142°
2026-05-01 08:17 45.70392 19.15246 39372 ft 466 kts 143°
2026-05-01 08:18 45.65031 19.20476 39371 ft 466 kts 143°
2026-05-01 08:19 45.55210 19.30022 39370 ft 466 kts 143°
2026-05-01 08:19 45.49844 19.35221 39372 ft 466 kts 143°
2026-05-01 08:20 45.44474 19.40411 39370 ft 466 kts 143°
2026-05-01 08:20 45.39102 19.45592 39363 ft 466 kts 143°
2026-05-01 08:21 45.33766 19.50726 39362 ft 466 kts 143°
2026-05-01 08:21 45.28395 19.55881 39362 ft 466 kts 143°
2026-05-01 08:22 45.23009 19.61038 39364 ft 467 kts 144°
2026-05-01 08:22 45.17622 19.66185 39363 ft 467 kts 144°
2026-05-01 08:23 45.12219 19.71335 39363 ft 467 kts 144°
2026-05-01 08:23 45.06848 19.76443 39359 ft 468 kts 144°
2026-05-01 08:24 45.01442 19.81573 39362 ft 468 kts 144°
2026-05-01 08:24 44.96026 19.86700 39367 ft 469 kts 144°
2026-05-01 08:25 44.90601 19.91823 39368 ft 469 kts 144°
2026-05-01 08:25 44.85166 19.96944 39369 ft 470 kts 144°
2026-05-01 08:26 44.79730 20.02055 39351 ft 470 kts 145°
2026-05-01 08:26 44.74286 20.07161 39350 ft 470 kts 145°
2026-05-01 08:27 44.68831 20.12266 39353 ft 471 kts 145°
2026-05-01 08:27 44.63408 20.17329 39353 ft 471 kts 145°
2026-05-01 08:28 44.57938 20.22424 39359 ft 472 kts 145°
2026-05-01 08:28 44.52466 20.27509 39355 ft 472 kts 145°
2026-05-01 08:29 44.46990 20.32586 39353 ft 472 kts 145°
2026-05-01 08:29 44.41520 20.37645 39340 ft 471 kts 145°
2026-05-01 08:30 44.36048 20.42697 39342 ft 471 kts 146°
2026-05-01 08:30 44.30574 20.47740 39339 ft 472 kts 146°
2026-05-01 08:31 44.25126 20.52745 39339 ft 472 kts 146°
2026-05-01 08:31 44.19637 20.57777 39336 ft 472 kts 146°
2026-05-01 08:32 44.14136 20.62807 39340 ft 473 kts 146°
2026-05-01 08:32 44.08635 20.67828 39340 ft 473 kts 146°
2026-05-01 08:33 44.03127 20.72844 39341 ft 473 kts 146°
2026-05-01 08:33 43.97615 20.77852 39343 ft 473 kts 146°
2026-05-01 08:34 43.92131 20.82824 39343 ft 474 kts 147°
2026-05-01 08:34 43.86607 20.87819 39342 ft 474 kts 147°
2026-05-01 08:35 43.81087 20.92800 39346 ft 474 kts 147°
2026-05-01 08:35 43.75556 20.97780 39337 ft 474 kts 147°
2026-05-01 08:36 43.70032 21.02743 39332 ft 474 kts 147°
2026-05-01 08:36 43.64507 21.07696 39330 ft 474 kts 147°
2026-05-01 08:37 43.59012 21.12610 39327 ft 474 kts 147°
2026-05-01 08:37 43.53446 21.17577 39329 ft 474 kts 147°
2026-05-01 08:38 43.47947 21.22474 39320 ft 473 kts 148°
2026-05-01 08:38 43.42409 21.27394 39314 ft 473 kts 148°
2026-05-01 08:39 43.36871 21.32304 39314 ft 473 kts 148°
2026-05-01 08:39 43.31337 21.37199 39306 ft 473 kts 148°
2026-05-01 08:40 43.23023 21.44533 39303 ft 473 kts 148°
2026-05-01 08:40 43.17488 21.49402 39301 ft 473 kts 148°
2026-05-01 08:41 43.11938 21.54273 39300 ft 473 kts 148°
2026-05-01 08:41 43.06392 21.59131 39292 ft 473 kts 148°
2026-05-01 08:42 43.00875 21.63953 39291 ft 474 kts 149°
2026-05-01 08:42 42.95314 21.68803 39290 ft 474 kts 149°
2026-05-01 08:43 42.89745 21.73649 39292 ft 474 kts 149°
2026-05-01 08:43 42.84168 21.78490 39292 ft 475 kts 149°
2026-05-01 08:44 42.78581 21.83331 39295 ft 476 kts 149°
2026-05-01 08:44 42.72991 21.88164 39289 ft 477 kts 149°
2026-05-01 08:45 42.67436 21.92956 39291 ft 477 kts 149°
2026-05-01 08:45 42.61823 21.97788 39287 ft 477 kts 149°
2026-05-01 08:46 42.56210 22.02609 39286 ft 478 kts 149°
2026-05-01 08:46 42.50588 22.07428 39276 ft 478 kts 149°
2026-05-01 08:47 42.44975 22.12229 39272 ft 476 kts 150°
2026-05-01 08:47 42.39356 22.17027 39265 ft 478 kts 150°
2026-05-01 08:48 42.33642 22.21609 39263 ft 475 kts 156°
2026-05-01 08:48 42.27548 22.24818 39256 ft 472 kts 167°
2026-05-01 08:49 42.21146 22.26583 39252 ft 469 kts 174°
2026-05-01 08:49 42.14702 22.28084 39251 ft 470 kts 173°
2026-05-01 08:50 42.08242 22.29604 39257 ft 471 kts 173°
2026-05-01 08:50 42.01804 22.31118 39246 ft 468 kts 173°
2026-05-01 08:51 41.95379 22.32623 39243 ft 469 kts 174°
2026-05-01 08:51 41.88989 22.34116 39239 ft 469 kts 174°
2026-05-01 08:52 41.82513 22.35627 39238 ft 469 kts 174°
2026-05-01 08:52 41.76120 22.37115 39241 ft 469 kts 174°
2026-05-01 08:53 41.69688 22.38610 39239 ft 469 kts 174°
2026-05-01 08:53 41.63252 22.40102 39243 ft 469 kts 174°
2026-05-01 08:54 41.56821 22.41590 39239 ft 469 kts 174°
2026-05-01 08:54 41.50388 22.43075 39241 ft 468 kts 174°
2026-05-01 08:55 41.44387 22.44458 39233 ft 468 kts 174°
2026-05-01 08:55 41.37967 22.45935 39237 ft 468 kts 174°
2026-05-01 08:56 41.31617 22.47392 39238 ft 468 kts 174°
2026-05-01 08:56 41.25193 22.48864 39234 ft 468 kts 174°
2026-05-01 08:57 41.18768 22.50334 39236 ft 468 kts 174°
2026-05-01 08:57 41.12438 22.52567 39231 ft 474 kts 163°
2026-05-01 08:58 41.06412 22.56237 39234 ft 479 kts 155°
2026-05-01 08:58 41.00553 22.60458 39232 ft 479 kts 155°
2026-05-01 08:59 40.94714 22.64617 39233 ft 480 kts 155°
2026-05-01 08:59 40.88820 22.68794 39230 ft 480 kts 155°
2026-05-01 09:00 40.82930 22.72959 39232 ft 481 kts 156°
2026-05-01 09:00 40.77024 22.77126 39231 ft 481 kts 156°
2026-05-01 09:01 40.71112 22.81290 39236 ft 482 kts 156°
2026-05-01 09:01 40.65208 22.85440 39148 ft 480 kts 156°
2026-05-01 09:02 40.62260 22.87509 38693 ft 480 kts 156°
2026-05-01 09:02 40.59302 22.89583 37912 ft 483 kts 156°
2026-05-01 09:02 40.56364 22.91639 37054 ft 487 kts 156°
2026-05-01 09:02 40.53357 22.93742 36131 ft 492 kts 156°
2026-05-01 09:03 40.50321 22.95864 35264 ft 495 kts 157°
2026-05-01 09:03 40.47271 22.97996 34477 ft 496 kts 157°
2026-05-01 09:03 40.44155 22.99894 33635 ft 491 kts 164°
2026-05-01 09:03 40.40964 23.01480 32749 ft 490 kts 165°
2026-05-01 09:04 40.37768 23.03064 31848 ft 491 kts 165°
2026-05-01 09:04 40.34575 23.04650 31005 ft 491 kts 165°
2026-05-01 09:04 40.31391 23.06232 30062 ft 492 kts 165°
2026-05-01 09:04 40.28183 23.07825 29124 ft 490 kts 164°
2026-05-01 09:05 40.25010 23.09402 28433 ft 484 kts 164°
2026-05-01 09:05 40.21882 23.10956 27765 ft 478 kts 164°
2026-05-01 09:05 40.18788 23.12489 27084 ft 472 kts 164°
2026-05-01 09:05 40.15731 23.14001 26447 ft 467 kts 164°
2026-05-01 09:06 40.12750 23.15473 25814 ft 461 kts 163°
2026-05-01 09:06 40.09743 23.16954 24862 ft 463 kts 163°
2026-05-01 09:06 40.06710 23.18444 23813 ft 467 kts 163°
2026-05-01 09:06 40.03658 23.19943 22708 ft 469 kts 163°
2026-05-01 09:07 40.00620 23.21440 21872 ft 464 kts 162°
2026-05-01 09:07 39.97617 23.22919 21070 ft 458 kts 162°
2026-05-01 09:07 39.94647 23.24381 20281 ft 454 kts 162°
2026-05-01 09:07 39.91706 23.25825 19529 ft 449 kts 162°
2026-05-01 09:08 39.88798 23.27252 18791 ft 444 kts 162°
2026-05-01 09:08 39.85918 23.28664 17996 ft 440 kts 162°
2026-05-01 09:08 39.83073 23.30058 17188 ft 435 kts 162°
2026-05-01 09:08 39.81200 23.30975 16653 ft 432 kts 162°
2026-05-01 09:09 39.77492 23.32789 15605 ft 427 kts 162°
2026-05-01 09:09 39.74725 23.34142 14835 ft 423 kts 162°
2026-05-01 09:09 39.71978 23.35483 14075 ft 420 kts 162°
2026-05-01 09:09 39.69258 23.36809 13311 ft 415 kts 162°
2026-05-01 09:10 39.67439 23.37695 12831 ft 410 kts 162°
2026-05-01 09:10 39.64786 23.38987 12125 ft 405 kts 162°
2026-05-01 09:10 39.62165 23.40262 11436 ft 399 kts 162°
2026-05-01 09:10 39.59610 23.41505 10754 ft 394 kts 162°
2026-05-01 09:11 39.57087 23.42732 10089 ft 380 kts 162°
2026-05-01 09:11 39.54648 23.43916 9362 ft 368 kts 162°
2026-05-01 09:11 39.52279 23.45063 8653 ft 359 kts 161°
2026-05-01 09:11 39.49955 23.46183 7950 ft 352 kts 160°
2026-05-01 09:12 39.47688 23.47271 7263 ft 343 kts 159°
2026-05-01 09:12 39.45472 23.48335 6581 ft 335 kts 158°
2026-05-01 09:12 39.43310 23.49373 5919 ft 327 kts 157°
2026-05-01 09:12 39.41209 23.50385 5420 ft 317 kts 156°
2026-05-01 09:13 39.39188 23.51360 5025 ft 303 kts 156°
2026-05-01 09:13 39.37257 23.52293 4663 ft 289 kts 156°
2026-05-01 09:13 39.35426 23.53177 4393 ft 273 kts 155°
2026-05-01 09:13 39.33718 23.54004 4266 ft 259 kts 155°
2026-05-01 09:14 39.32059 23.54809 4119 ft 250 kts 154°
2026-05-01 09:14 39.30461 23.55581 4012 ft 240 kts 154°
2026-05-01 09:14 39.28945 23.56312 4001 ft 225 kts 154°
2026-05-01 09:14 39.27526 23.56996 3998 ft 211 kts 153°
2026-05-01 09:15 39.26111 23.57691 4000 ft 220 kts 153°
2026-05-01 09:15 39.24695 23.58383 3999 ft 217 kts 153°
2026-05-01 09:15 39.23276 23.59071 3998 ft 218 kts 153°
2026-05-01 09:15 39.21853 23.59758 3999 ft 218 kts 153°
2026-05-01 09:16 39.20429 23.60444 4005 ft 219 kts 153°
2026-05-01 09:16 39.18991 23.61132 3994 ft 220 kts 157°
2026-05-01 09:16 39.17458 23.61237 3848 ft 226 kts 193°
2026-05-01 09:17 39.14602 23.59486 3197 ft 231 kts 207°
2026-05-01 09:17 39.13200 23.58487 2945 ft 230 kts 207°
2026-05-01 09:17 39.10418 23.56489 2366 ft 229 kts 207°
2026-05-01 09:18 39.09042 23.55505 2252 ft 222 kts 207°
2026-05-01 09:18 39.06410 23.53618 2102 ft 210 kts 207°
2026-05-01 09:19 39.03979 23.51863 2020 ft 200 kts 207°
2026-05-01 09:19 39.02744 23.50973 2023 ft 204 kts 212°
2026-05-01 09:19 39.01711 23.49754 1942 ft 201 kts 237°
2026-05-01 09:20 39.01195 23.46316 2158 ft 189 kts 290°
2026-05-01 09:20 39.02634 23.44157 2069 ft 150 kts 351°
2026-05-01 09:21 39.04521 23.44524 1675 ft 137 kts 28°
2026-05-01 09:21 39.05380 23.45020 1481 ft 133 kts 23°
2026-05-01 09:21 39.07095 23.45563 1373 ft 128 kts 14°
2026-05-01 09:22 39.08818 23.46149 1442 ft 127 kts 24°
2026-05-01 09:22 39.10430 23.46975 1342 ft 125 kts 25°
2026-05-01 09:23 39.11235 23.47414 1186 ft 124 kts 26°
2026-05-01 09:23 39.12799 23.48122 893 ft 114 kts 22°
2026-05-01 09:24 39.14316 23.48850 680 ft 114 kts 22°
2026-05-01 09:24 39.15053 23.49178 499 ft 111 kts 21°
2026-05-01 09:24 39.16527 23.49832 160 ft 115 kts 22°
2026-05-01 09:25 39.17790 23.50401 38 ft 42 kts 18°
2026-05-01 09:25 39.17926 23.50398 41 ft 3 kts 269°
2026-05-01 09:26 39.17924 23.50389 41 ft 0 kts 260°
2026-05-01 09:26 39.17924 23.50388 41 ft 1 kts 260°
2026-05-01 09:27 39.17943 23.50279 39 ft 5 kts 289°
2026-05-01 09:27 39.17948 23.50261 39 ft 0 kts 289°